Regional Weather Roundup
Issued by NWS Portland, ME

Home | Current Version | Previous Version | Text Only | Print | Product List | Glossary On
Versions: 1 2 3 4 5 6 7 8 9 10 11 12 13 14 15 16 17 18 19 20 21 22 23 24 25 26 27 28 29 30 31 32 33 34 35 36 37 38 39 40 41 42 43 44 45 46 47 48 49 50
000
ASUS41 KGYX 271810
RWRGYX
WEATHER ROUNDUP FOR MAINE AND NEW HAMPSHIRE
NATIONAL WEATHER SERVICE GRAY ME
200 PM EDT SAT MAY 27 2017

MEZ002-005-006-010-012-015-018-020-021-024-026-027-029-271900-
MAINE

CITY           SKY/WX    TMP DP  RH WIND       PRES   REMARKS
PORTLAND       MOSUNNY   62  49  62 E10       29.86S
6HR MIN TEMP:  55; 6HR MAX TEMP:  63;

SANFORD        MOSUNNY   66  51  58 VRB5      29.85S
BAR HARBOR     CLOUDY    52  44  74 NE8       29.87R
WISCASSET      PTSUNNY   64  47  53 E7        29.86F
6HR MIN TEMP:  53; 6HR MAX TEMP:  64;

ROCKLAND       CLOUDY    57  47  69 N7        29.87S
FRYEBURG       CLOUDY    69  47  45 NE8       29.84F
6HR MIN TEMP:  57; 6HR MAX TEMP:  70;

LEWISTONAUBURN SUNNY     66  48  52 NE8G17    29.84F
AUGUSTA        MOSUNNY   62  46  55 VRB3      29.85F
6HR MIN TEMP:  51; 6HR MAX TEMP:  63;

WATERVILLE     PTSUNNY   62  49  62 NW6       29.83S
BANGOR         CLOUDY    58  46  64 NE7       29.86S
6HR MIN TEMP:  49; 6HR MAX TEMP:  58;

GREENVILLE       N/A     57  47  69 NW8       29.84S
6HR MIN TEMP:  45; 6HR MAX TEMP:  57;

MILLINOCKET    CLOUDY    61  46  57 NE7       29.85F
6HR MIN TEMP:  49; 6HR MAX TEMP:  61;

HOULTON        CLOUDY    61  46  57 NE12      29.83S
6HR MIN TEMP:  49; 6HR MAX TEMP:  63;

PRESQUE ISLE   CLOUDY    62  43  49 NE5       29.85S
6HR MIN TEMP:  46; 6HR MAX TEMP:  63;

FRENCHVILLE    CLOUDY    63  39  41 E6        29.83S
6HR MIN TEMP:  48; 6HR MAX TEMP:  64;

CARIBOU        CLOUDY    64  43  46 VRB5      29.83F
6HR MIN TEMP:  48; 6HR MAX TEMP:  65;

$$

NHZ002-005-008-009-011-012-014-271900-
NEW HAMPSHIRE

CITY           SKY/WX    TMP DP  RH WIND       PRES   REMARKS
PORTSMOUTH     MOSUNNY   62  50  64 SE9       29.85S
ROCHESTER      CLOUDY    68  47  46 VRB3      29.84S
6HR MIN TEMP:  56; 6HR MAX TEMP:  69;

NASHUA         PTSUNNY   70  49  47 VRB5      29.86S
MANCHESTER     PTSUNNY   68  46  45 SW3       29.84S
6HR MIN TEMP:  56; 6HR MAX TEMP:  69;

CONCORD        CLOUDY    70  48  45 N7        29.84S
6HR MIN TEMP:  56; 6HR MAX TEMP:  71;

LACONIA        CLOUDY    67  49  52 E7        29.85S
PLYMOUTH       PTSUNNY   69  48  47 W3        29.84S
BERLIN         CLOUDY    67  41  38 VRB3      29.85F
6HR MIN TEMP:  52; 6HR MAX TEMP:  69;

WHITEFIELD     MOSUNNY   65  45  48 N5        29.87F
6HR MIN TEMP:  51; 6HR MAX TEMP:  65;

JAFFREY        PTSUNNY   68  49  50 NW7       29.87S
6HR MIN TEMP:  54; 6HR MAX TEMP:  69;

KEENE          CLOUDY    68  50  52 CALM      29.87S
LEBANON        PTSUNNY   71  50  47 W9        29.86S
6HR MIN TEMP:  55; 6HR MAX TEMP:  71;

MT WASHINGTON  PTSUNNY   43  37  81 N9          N/A
6HR MIN TEMP:  33; 6HR MAX TEMP:  42;

$$

VTZ005-007-008-271900-
VERMONT

CITY           SKY/WX    TMP DP  RH WIND       PRES   REMARKS
ST JOHNSBURY     N/A     65  42  43 MISG      29.85F
MONTPELIER     CLOUDY    65  48  54 VRB7      29.92S
BURLINGTON     MOSUNNY   69  45  41 NW7       29.89R
$$

MAZ007-012-024-CTZ003-RIZ002-NYZ038-NYZ072-271900-
SOUTHERN NEW ENGLAND AND NY

CITY           SKY/WX    TMP DP  RH WIND       PRES   REMARKS
BOSTON         MOSUNNY   58  51  78 E12       29.89R
WORCESTER      PTSUNNY   66  47  50 VRB7      29.87S
NANTUCKET      CLOUDY    61  48  62 N8        29.88S
PROVIDENCE     PTSUNNY   65  51  60 S3        29.87S
HARTFORD       PTSUNNY   67  48  50 VRB3      29.88F
ALBANY         PTSUNNY   67  50  54 CALM      29.89F
NEW YORK CITY  CLOUDY    71  53  52 NW5       29.86S
$$

ANZ081-ANZ082-ANZ150-NHZ014-MEZ023>029-271900-
COASTAL MARINE OBSERVATIONS

STATION/POSITION TIME  TEMP    WIND        PRES    WAVE
                       AIR SEA DIR/SP/G            HT/PER
                 (UTC) (F)     (DEG/KT/KT) (MB)    (FT/S)
MOUNT DESERT ROC 1800   45                 1011.5R
MATINICUS ROCK   1700   45     140/  4/  4 1011.3R
ISLE OF SHOALS   1700   51     110/  9/  9 1011.1R
JEFFREYS LEDGE   1706      51                N/A     3/ 9
CASHES LEDGE BUO 1750   49 48              1011.5R   3/11
GEORGES BANK BUO 1650   48 47              1009.4    8/10
$$

.............KEY..............
   WCI - WIND CHILL
   TC  - TEMPERATURE IN CELSIUS
   VSB - VISIBILITY IN MILES
   HX  - HEAT INDEX
   FAIR- INDICATES FEW OR NO CLOUDS BELOW 12,000 FT, WITH NO
         SIGNIFICANT WEATHER AND/OR OBSTRUCTIONS TO VISIBILITY.





USA.gov is the U.S. government's official web portal to all federal, state and local government web resources and services.